Location: Gull Harbor
(47.1000°N, 122.9000°W)
Time: 05:48:25
(UTC-07:00)

Envisat - Visible Passes

Search period start: 22 August 2017 00:00
Search period end: 01 September 2017 00:00
Orbit: 764 x 766 km, 98.2° (Epoch: 22 August)

Date Brightness Start Highest point End Pass type
(mag) Time Alt. Az. Time Alt. Az. Time Alt. Az.
22 Aug 4.4 21:40:33 10° SSW 21:45:14 37° W 21:49:57 10° NNW visible
23 Aug 3.2 21:03:18 10° S 21:08:23 77° WSW 21:13:30 10° NNW visible
23 Aug 5.9 22:47:36 10° W 22:48:16 10° W 22:48:55 10° WNW visible
24 Aug 5.2 22:07:08 10° SW 22:11:04 22° W 22:15:01 10° NW visible
25 Aug 4.0 21:29:14 10° S 21:34:05 45° W 21:38:58 10° NNW visible
26 Aug 3.0 20:52:12 10° SSE 20:57:18 87° ENE 21:02:25 10° NNW visible
26 Aug 5.7 22:34:38 10° WSW 22:37:00 13° W 22:39:22 10° WNW visible
27 Aug 4.9 21:55:34 10° SSW 21:59:52 27° W 22:04:12 10° NW visible
28 Aug 3.6 21:17:57 10° S 21:22:57 57° W 21:27:58 10° NNW visible
29 Aug 3.0 20:41:10 10° SSE 20:46:13 71° ENE 20:51:18 10° N visible
29 Aug 5.6 22:22:35 10° SW 22:25:45 17° W 22:28:57 10° NW visible
30 Aug 4.5 21:44:07 10° SSW 21:48:41 34° W 21:53:18 10° NNW visible
31 Aug 3.3 21:06:46 10° S 21:11:49 71° WSW 21:16:55 10° NNW visible
